Other Surface Observations
Issued by NWS Missoula, MT

Home | Current Version | Previous Version | Text Only | Print | Product List | Glossary On
Versions: 1 2 3 4 5 6 7 8 9 10 11 12 13 14 15 16 17 18 19 20 21 22 23 24 25 26 27 28 29 30 31 32 33 34 35 36 37 38 39 40 41 42 43 44 45 46 47 48 49 50
803
SXUS55 KMSO 061223
OSOMSO
MONTANA AWOS SUMMARY
NATIONAL WEATHER SERVICE MISSOULA MT
623 AM MDT FRI MAY 6 2016

Montana AWOS Reports

LAUREL      |K6S8 061215Z AUTO 00000KT 3 1/2SM HZ 13/04 A3010 RMK AO1 T01280039
ROUNDUP     |KRPX 061215Z AUTO 34011G21KT 7SM 12/03 A3002 RMK AO1 T01170033




USA.gov is the U.S. government's official web portal to all federal, state and local government web resources and services.